Terminal Aerodrome Forecast
Issued by NWS Cheyenne, WY

Home | Current Version | Previous Version | Text Only | Print | Product List | Glossary On
Versions: 1 2 3 4 5 6 7 8 9 10 11 12 13 14 15 16 17 18 19 20 21 22 23 24 25 26 27
000
FTUS45 KCYS 040540
TAFCYS
TAF
KCYS 040540Z 0406/0506 08007KT P6SM VCSH OVC060
     FM040900 13005KT 6SM -SHRA BR SCT015 OVC025
     FM041500 14011KT 6SM BR OVC015
     FM050300 10008KT 2SM BR OVC004=

USA.gov is the U.S. government's official web portal to all federal, state and local government web resources and services.